TimeMDT,TemperatureF,Dew PointF,Humidity,Sea Level PressureIn,VisibilityMPH,Wind Direction,Wind SpeedMPH,Gust SpeedMPH,PrecipitationIn,Events,Conditions,WindDirDegrees,DateUTC
12:53 AM,66.0,57.9,75,29.83,10.0,North,17.3,23.0,N/A,,Clear,10,2013-09-10 06:53:00
1:53 AM,64.9,57.0,75,29.86,10.0,North,11.5,-,N/A,,Clear,10,2013-09-10 07:53:00
2:53 AM,64.9,57.9,78,29.87,10.0,NNE,12.7,-,N/A,,Clear,30,2013-09-10 08:53:00
3:53 AM,64.0,57.0,78,29.87,10.0,NNE,8.1,-,N/A,,Clear,30,2013-09-10 09:53:00
4:53 AM,63.0,57.9,84,29.88,10.0,NE,6.9,-,N/A,,Clear,40,2013-09-10 10:53:00
5:53 AM,60.1,57.0,90,29.92,10.0,NNW,5.8,-,N/A,,Clear,340,2013-09-10 11:53:00
6:53 AM,61.0,57.0,87,29.98,10.0,NNW,10.4,-,N/A,,Clear,330,2013-09-10 12:53:00
7:53 AM,64.0,57.9,80,30.00,10.0,NNW,9.2,-,N/A,,Partly Cloudy,340,2013-09-10 13:53:00
8:53 AM,70.0,59.0,68,30.00,10.0,North,9.2,-,N/A,,Clear,350,2013-09-10 14:53:00
9:53 AM,73.9,57.0,55,30.01,10.0,NNE,10.4,-,N/A,,Clear,20,2013-09-10 15:53:00
10:53 AM,77.0,57.9,52,30.01,10.0,NNE,9.2,-,N/A,,Clear,20,2013-09-10 16:53:00
11:53 AM,81.0,57.9,45,30.00,10.0,NE,10.4,-,N/A,,Clear,50,2013-09-10 17:53:00
12:53 PM,82.9,55.9,39,29.99,10.0,Variable,3.5,-,N/A,,Clear,0,2013-09-10 18:53:00
1:53 PM,84.0,55.0,37,29.99,10.0,NNE,9.2,-,N/A,,Clear,20,2013-09-10 19:53:00
2:53 PM,84.9,54.0,34,29.98,10.0,NE,8.1,-,N/A,,Clear,40,2013-09-10 20:53:00
3:53 PM,84.0,54.0,35,29.97,10.0,NE,9.2,-,N/A,,Clear,50,2013-09-10 21:53:00
4:53 PM,84.0,55.0,37,29.96,10.0,NE,9.2,-,N/A,,Clear,40,2013-09-10 22:53:00
5:53 PM,82.9,57.0,41,29.97,10.0,NE,10.4,-,N/A,,Clear,40,2013-09-10 23:53:00
6:53 PM,78.1,57.0,48,29.99,10.0,NNE,6.9,-,N/A,,Clear,30,2013-09-11 00:53:00
7:53 PM,73.9,59.0,59,30.02,10.0,NNE,11.5,-,N/A,,Partly Cloudy,30,2013-09-11 01:53:00
8:53 PM,72.0,57.9,61,30.05,10.0,NE,12.7,19.6,N/A,,Clear,40,2013-09-11 02:53:00
9:53 PM,70.0,57.9,65,30.06,10.0,ENE,10.4,-,N/A,,Mostly Cloudy,60,2013-09-11 03:53:00
10:53 PM,68.0,57.9,70,30.08,10.0,East,4.6,-,N/A,,Mostly Cloudy,100,2013-09-11 04:53:00
11:53 PM,66.0,57.9,75,30.04,10.0,ENE,8.1,-,N/A,,Clear,60,2013-09-11 05:53:00